Showing default

OPTOS, 39420

Orbit data source: Space-Track

OPTOS, 39420 is a payload satellite owned by INTA (ES) in SSO that was launched on Thu, 21 Nov 2013 UTC via a DNEPR launch vehicle from the Orenburg, Russia (OREN). Payload-class satellites include a variety of spacecraft equipped with specific instruments for various scientific and technological missions. These include communications satellites like Starlink; space stations such as the ISS; scientific satellites like the Hubble; Earth observation satellites from companies like Planet Labs, Umbra, and HawkEye 360; GPS; miniature CubeSats for education and research; and military/defense satellites.

Loading next visibility...
Identifier
39420, 2013-066E
Orbit
SSO
Country
Flag of ESES / SPN
Related business
Manufacturer
INTA
Mission
Operational Amateur Technology
Bus & Motor
CUBESAT 3U, Unknown motor
Mass
4 kg wet, 4 kg dry
Launch date (UTC)
2013-11-21 (12 years ago)
Launch vehicle
DNEPR
Launch site
Orenburg, Russia (OREN)
Object type
Payload
Rocket body
Debris
Shape & HBR
Box, 0.1 m
Radar Cross Section
0.075 m², Small (<0.1 m²)

Expand to show TLE details & history
Last TLE update: 20 hours ago

TLE from 20 hours ago
0 OPTOS
1 39420U 13066E   25300.58658867  .00002767  00000-0  40780-3 0  9991
2 39420  97.7081 172.8459 0119699  41.3060 319.7125 14.71323176637309
Epoch: 2025-10-27T14:04Z
TLE epoch observation values (Epoch: 2025-10-27T14:04:41.261Z)
Latitude
-0.00007°
Longitude
-74.51231°
Altitude
596.042 km
Speed
7.596 km/s
True Right ascension
11h 31m 23s
True Declination
0° 00' 00"
Sunlit
Object was in daylight at epoch
Visualization orbit readout
Latitude
Unknown
Longitude
Unknown
Altitude
Unknown
Speed
Unknown
Apparent Right ascension
Unknown
Apparent Declination
Unknown
Sunlit
N/A
Visualization observer readout
Local Sidereal Time
05:21:26
Azimuth
Unknown
Elevation
Unknown
Doppler factor
Unknown
Orbital elements
Apogee altitude
738.063 km
Perigee altitude
569.718 km
Semi-major axis
7,032.028 km
Eccentricity
0.01197
Inclination
97.7081°
RAAN
172.8459°
Arg. of periapsis
41.306°
True anomaly
318.81536°
Mean anomaly
319.7125°
Eccentric anomaly
319.26496°
Mean motion
3.68063 °/min
Orbital period
97.81 mins
BSTAR
0.0004078
Loading maneuver chart data...
Computing Atmospheric mass density...
Loading historical data...
Loading historical data...
Loading historical data...
Loading historical data...
Loading historical data...
Loading historical data...
Loading historical data...

Documentation

Showing up to 5 results
|